SCP
0 0 0 0 0 0 0 0 0 0 0 0 0 0 0 0 0 0 0 0 0 0 0 0 0 0 0 0 0 0 0 0 0 0 0 0 0 0 0 0 0 0 0
0 0 0 0 0 0 0 0 0 0 0 0 0 0 0 0 0 0 0 0 0 0 0 0 0 0 0 0 0 0 0 0 0 0 0 0 0 0 0 0 0 0 0
0 0 0 0 0 0 0 0 0 0 0 0 0 0 0 0 0 0 0 0 0 0 0 0 0 0 0 0 0 0 0 0 0 0 0 0 0 0 0 0 0 0 0
0 0 0 0 0 0 0 0 0 0 0 0 0 0 0 0 0 0 0 0 0 0 0 0 0 0 0 0 0 0 0 0 0 0 0 0 0 0 0 0 0 0 0
0 0 0 0 0 0 0 0 0 0 0 0 0 0 0 0 0 0 0 0 0 0 0 0 0 0 0 0 0 0 0 0 0 0 0 0 0 0 0 0 0 0 0
0 0 0 0 0 0 0 0 0 0 0 0 0 0 0 0 0 0 0 0 0 0 0 0 0 0 0 0 0 0 0 0 0 0 0 0 0 0 0 0 0 0 0
0 0 0 0 0 0 0 0 0 0 0 0 0 0 0 0 0 0 0 0 0 0 0 0 0 0 0 0 0 0 0 0 0 0 0 0 0 0 0 0 0 0 0
0 0 0 0 0 0 0 0 0 0 0 0 0 0 0 0 0 0 0 0 0 0 0 0 0 0 0 0 0 0 0 0 0 0 0 0 0 0 0 0 0 0 0
0 0 0 0 0 0 0 0 0 0 0 0 0 0 0 0 0 0 0 0 0 0 0 0 0 0 0 0 0 0 0 0 0 0 0 0 0 0 0 0 0 0 0
0 0 0 0 0 0 0 0 0 0 0 0 0 0 0 0 0 0 0 0 0 0 0 0 0 0 0 0 0 0 0 0 0 0 0 0 0 0 0 0 0 0 0
0 0 0 0 0 0 0 0 0 0 0 0 0 0 0 0 0 0 0 0 0 0 0 0 0 0 0 0 0 0 0 0 0 0 0 0 0 0 0 0 0 0 0
0 0 0 0 0 0 0 0 0 0 0 0 0 0 0 0 0 0 0 0 0 0 0 0 0 0 0 0 0 0 0 0 0 0 0 0 0 0 0 0 0 0 0
0 0 0 0 0 0 0 0 0 0 0 0 0 0 0 0 0 0 0 0 0 0 0 0 0 0 0 0 0 0 0 0 0 0 0 0 0 0 0 0 0 0 0
0 0 0 0 0 0 0 0 0 0 0 0 0 0 0 0 0 0 0 0 0 0 0 0 0 0 0 0 0 0 0 0 0 0 0 0 0 0 0 0 0 0 0
0 0 0 0 0 0 0 0 0 0 0 0 0 0 0 0 0 0 0 0 0 0 0 0 0 0 0 0 0 -0 0 -0 -0 0 0 0 0 -0 0 0 0 0 0
0 0 0 0 0 0 0 0 0 0 0 0 0 0 0 0 0 0 0 0 0 0 0 0 0 0 0 0 -0 -0 0 0 -0 -0 -0 -0 -0 -0 0 0 0 0 0
0 0 0 0 0 0 0 0 0 0 0 0 0 0 0 0 0 0 0 0 0 0 0 0 0 0 0 0 -0 -0 0 0 0 0 -0 -0 -0 0 0 0 0 0 0
0 0 0 0 0 0 0 0 0 0 0 0 0 0 0 0 0 0 0 0 0 0 0 0 0 0 0 -0 -0 -0 0 0 0 0 0 0 0 0 0 0 0 0 0
0 0 0 0 0 0 0 0 0 0 0 0 0 0 0 0 0 0 0 0 0 0 0 0 0 0 0 0 -0 0 0 0 0 0 0 0 0 0 0 0 0 0 0
0 0 0 0 0 0 0 0 0 0 0 0 0 0 0 0 0 0 0 0 0 0 0 0 0 0 0 0 0 0 0 0 0 0 -0 -0 -0 -0 0 0 0 0 0
0 0 0 0 0 0 0 0 0 0 0 0 0 0 0 0 0 0 0 0 0 0 0 0 0 0 0 0 -0 -0 0 0 0 -0 -0 -0 -0 -0 -0 -0 0 0 0
0 0 0 0 0 0 0 0 0 0 0 0 0 0 0 0 0 0 0 0 0 0 0 -0 0 0 0 -0 -0 -0 -0 -0 -0 -0 -0 -0 -0 -0 -0 0 -0 -0 0
0 0 0 0 0 0 0 0 0 0 0 0 0 0 0 0 0 0 0 0 0 0 0 0 0 0 0 0 0 -0 -0 -0 0 -0 -0 -0 -0 -0 -0 -0 0 0 0
0 0 0 0 0 0 0 0 0 0 0 0 0 0 0 0 0 0 0 0 0 0 0 0 0 0 0 0 0 0 0 0 0 0 0 0 0 0 0 0 -0 -0 -0
0 0 0 0 -0 0 -0 -0 -0 0 0 0 0 0 0 0 0 0 0 0 0 0 0 0 0 0 0 0 0 0 0 -0 -0 -0 0 0 0 0 0 0 0 0 0
0 0 0 0 0 0 -0 -0 -0 -0 -0 0 0 0 0 0 0 0 0 0 0 0 0 0 0 0 -0 -0 -0 -0 -0 -0 -0 0 0 0 0 0 0 0 0 0 0
Wind_Speed_500mb
28 25 19 15 16 22 30 40 50 60 72 79 83 85 84 80 73 62 59 57 59 59 60 62 63 66 75 77 71 75 85 89 90 97 53 97 100 111 109 102 107 109 109
32 27 20 16 20 28 38 49 58 66 72 76 79 75 74 71 69 66 62 58 54 54 58 58 58 59 60 62 60 61 64 91 91 86 78 43 87 102 119 110 113 111 114
32 24 21 19 25 36 47 55 62 65 70 74 75 70 67 63 57 55 56 57 56 51 52 57 58 58 60 61 61 62 67 77 82 98 73 32 36 79 108 119 116 115 118
28 23 18 22 31 42 51 57 61 65 69 70 68 65 63 61 58 63 60 62 60 54 49 49 54 61 65 70 70 60 68 68 79 71 100 95 58 25 35 115 127 120 117
24 19 20 27 38 47 54 56 60 64 67 66 63 62 61 58 58 57 57 54 55 55 54 54 54 58 65 68 63 67 63 73 77 76 70 79 100 113 77 54 118 125 127
27 23 25 33 42 47 49 55 61 63 66 65 60 56 58 57 55 55 58 61 59 60 60 60 58 57 57 63 68 68 68 76 80 85 77 80 71 85 91 79 81 128 131
28 25 26 33 39 42 47 53 58 62 63 61 58 57 57 55 57 59 63 65 68 68 70 67 67 64 61 58 58 68 71 81 73 87 85 84 84 70 81 78 62 82 106
32 24 26 32 35 40 46 52 56 59 58 57 56 56 55 55 60 63 62 67 70 73 73 72 71 69 69 66 60 64 74 73 93 86 79 92 93 86 93 60 76 50 81
30 25 28 33 34 40 46 50 53 56 55 57 58 58 56 56 60 60 61 63 66 68 69 68 72 73 74 74 69 68 73 75 79 101 98 72 74 76 96 108 74 71 62
40 32 31 33 35 39 44 46 50 54 57 59 60 60 60 57 56 58 60 60 63 64 68 70 70 72 75 75 72 68 71 75 63 70 99 104 76 76 78 83 92 92 71
42 40 36 36 34 36 39 43 48 52 55 58 60 62 61 57 56 55 55 56 59 61 64 69 70 70 65 75 72 68 70 71 88 76 63 72 85 75 78 82 91 89 85
34 39 42 33 31 31 33 38 44 49 52 54 58 60 60 58 57 55 53 53 58 62 62 65 69 65 60 73 66 64 63 62 73 66 81 82 73 64 64 74 74 89 88
31 37 34 28 26 25 28 33 40 45 47 50 54 58 60 59 57 55 53 52 55 59 60 61 65 64 56 61 62 59 60 65 59 70 65 74 67 83 82 70 68 83 91
31 29 26 25 23 20 24 29 35 40 42 45 49 54 60 62 58 55 52 50 51 55 56 57 57 55 51 49 52 58 58 58 59 59 60 62 77 74 69 72 69 86 86
23 24 24 23 19 17 20 25 30 35 38 41 45 50 56 60 58 53 49 46 48 47 47 49 47 42 42 45 43 49 56 60 62 57 53 62 74 72 61 64 78 74 78
19 23 24 21 17 14 16 19 23 27 33 37 43 47 51 56 59 53 49 47 43 42 41 39 39 35 30 29 40 37 46 53 64 63 64 74 79 75 56 54 72 86 72
21 24 23 21 18 14 14 15 19 23 28 32 38 44 50 55 58 54 48 43 42 42 41 40 36 29 20 10 15 33 36 35 41 46 51 51 55 54 54 58 76 84 90
20 24 25 23 20 12 12 12 15 19 22 27 33 40 47 52 55 56 54 51 47 45 42 42 42 36 34 25 6 17 27 29 27 28 31 32 48 52 50 56 61 61 56
13 20 22 25 20 14 11 9 12 13 15 19 26 35 41 45 49 53 54 56 56 52 47 45 45 42 34 23 12 7 14 17 18 18 18 21 32 35 38 44 48 47 44
17 19 23 27 24 17 13 11 10 8 8 12 19 26 31 36 41 46 50 52 54 58 55 54 54 46 37 27 19 21 36 45 45 42 37 28 28 25 28 36 46 50 41
25 25 27 29 27 22 17 15 11 8 5 7 12 17 23 28 32 36 38 44 50 53 57 60 60 62 58 48 43 44 49 53 57 57 51 42 33 29 25 24 28 30 38
32 34 35 34 32 29 25 21 17 13 8 4 5 10 15 20 24 28 30 34 39 43 48 54 58 59 58 57 55 55 57 58 62 65 60 54 51 50 47 45 44 43 41
37 39 42 39 40 37 33 28 22 20 14 8 4 2 6 10 14 18 24 28 33 37 41 43 46 49 49 48 47 47 49 51 55 55 52 49 50 51 51 49 47 42 41
38 39 46 49 48 44 40 33 29 26 22 16 11 8 5 4 7 11 16 20 27 31 34 37 39 41 42 43 43 42 42 43 46 46 46 45 44 46 50 50 45 42 44
41 40 49 51 51 49 47 43 36 33 30 26 21 17 14 11 8 7 10 15 19 23 26 30 29 31 33 36 34 32 33 34 37 38 38 38 38 39 41 43 42 40 38
40 44 47 52 52 54 54 51 47 41 36 33 29 24 21 17 13 9 6 7 10 15 19 23 24 26 28 28 26 24 24 26 27 20 25 28 28 29 30 31 32 33 32
Wind_Direction_500mb
184 186 199 226 257 278 291 303 309 310 310 312 311 306 304 303 301 295 289 285 283 280 275 269 265 261 258 257 258 258 254 251 246 246 267 223 225 235 234 231 232 230 233
189 199 217 250 279 296 305 306 309 313 315 313 310 307 305 303 298 296 295 291 283 280 278 273 267 262 259 255 250 246 249 248 246 243 244 259 220 221 234 235 231 234 232
191 203 226 262 291 302 307 313 313 315 314 312 311 310 307 304 300 297 293 292 291 287 277 272 269 264 258 258 254 247 245 249 247 244 233 235 229 218 213 229 233 232 232
197 212 243 280 299 308 312 311 314 317 317 317 316 312 308 303 300 298 296 298 298 296 288 277 271 268 264 260 257 255 247 243 245 243 246 233 236 213 225 215 225 229 229
204 230 267 291 303 307 309 314 316 320 322 321 317 312 307 303 301 298 296 295 295 295 293 287 280 271 266 263 259 252 248 245 241 238 237 244 237 232 244 238 213 218 227
219 245 275 294 303 307 313 318 322 326 326 322 319 316 311 306 301 299 296 297 293 292 290 288 284 276 268 263 259 252 249 248 243 240 238 235 233 233 232 241 220 215 221
224 251 280 297 306 312 315 321 326 329 327 325 323 320 316 309 303 302 301 299 297 295 295 292 288 280 275 268 263 253 249 241 242 240 239 238 234 231 232 234 220 212 214
225 257 286 303 310 314 319 323 328 330 331 330 327 322 317 311 308 306 302 299 297 297 295 290 287 282 278 272 260 261 250 248 238 236 233 239 237 230 222 224 229 216 212
225 260 299 312 314 315 319 326 330 331 334 334 331 328 323 317 311 308 304 302 300 295 294 289 288 283 278 274 262 257 260 248 246 239 237 233 229 231 233 239 234 228 214
232 254 301 310 307 313 320 328 331 334 336 337 335 331 329 323 316 312 308 305 303 300 297 294 289 278 270 267 265 260 260 240 237 243 239 237 243 238 238 235 236 240 233
238 251 292 302 301 309 319 330 334 337 340 339 338 336 333 327 320 317 315 312 309 306 302 301 297 286 271 261 262 256 256 250 243 234 228 235 241 242 243 245 238 235 243
249 257 282 284 292 306 322 332 337 341 343 342 342 342 340 334 328 323 322 319 317 313 313 308 300 289 273 256 255 254 250 245 241 238 242 235 228 232 239 239 233 233 231
259 269 272 272 289 305 324 336 341 346 346 346 347 347 347 343 337 334 329 326 324 317 315 311 304 294 281 261 253 248 246 244 244 237 232 232 233 236 237 236 232 227 233
265 262 255 265 281 305 327 340 346 351 352 351 349 350 355 351 345 342 337 334 331 325 322 317 309 295 282 269 256 245 242 243 238 232 239 236 230 233 230 239 230 231 231
261 249 247 257 276 307 327 341 348 358 358 357 355 357 1 357 353 351 346 345 341 334 333 326 320 313 285 265 258 247 246 244 245 243 238 232 232 229 236 237 233 228 229
276 247 242 250 270 295 316 337 349 1 6 4 4 5 9 5 4 1 359 357 350 347 349 344 335 318 311 279 248 244 246 246 242 242 240 233 237 235 240 236 230 237 225
267 245 238 245 258 279 308 330 346 2 10 12 15 16 19 18 13 11 12 7 9 5 5 5 1 356 9 334 237 228 243 245 242 244 243 242 234 235 243 242 235 235 231
251 236 231 239 247 268 291 321 339 357 7 13 20 25 24 26 22 21 25 27 25 22 20 26 27 23 24 34 65 214 226 238 235 234 232 216 229 238 238 234 227 223 217
251 234 230 238 246 258 276 302 322 347 1 17 25 30 28 25 27 30 32 38 38 39 40 38 40 39 35 30 60 124 154 152 149 175 205 216 211 212 217 218 200 177 176
245 236 235 236 242 250 264 279 297 320 343 15 24 28 30 28 31 34 36 43 48 50 52 56 58 55 55 51 73 106 118 115 113 117 121 133 139 148 162 172 166 160 151
248 238 237 239 239 240 249 258 263 267 298 353 18 28 34 32 29 33 37 43 50 55 56 57 62 69 69 74 81 92 96 98 98 96 96 98 105 113 125 146 157 159 144
254 244 241 239 236 237 241 245 244 235 245 291 13 26 32 32 30 29 38 43 49 51 57 63 64 62 67 75 78 84 89 95 96 94 94 96 98 100 104 110 111 116 123
259 248 247 240 234 235 237 238 236 228 232 235 230 336 13 26 31 31 37 42 48 51 54 56 61 64 65 65 69 79 85 90 95 100 103 108 111 108 106 106 110 116 122
270 255 246 241 237 236 235 234 234 230 229 232 230 228 249 307 351 21 36 46 54 54 54 56 59 63 64 65 68 72 75 82 88 94 99 102 107 110 111 112 113 121 131
275 261 249 246 244 238 234 232 231 233 230 229 229 228 231 249 277 327 5 23 34 39 49 58 58 59 63 66 66 71 76 79 85 93 97 103 107 110 115 120 124 125 128
283 268 256 250 243 238 234 232 230 230 230 231 233 232 232 236 247 266 308 351 19 26 28 33 37 50 58 56 57 63 71 83 88 92 99 108 113 120 126 130 134 138 142
Wind_Speed_850mb
28 25 19 15 16 22 30 40 50 60 72 79 83 85 84 80 73 62 59 57 59 59 60 62 63 66 75 77 71 75 85 89 90 97 53 97 100 111 109 102 107 109 109
32 27 20 16 20 28 38 49 58 66 72 76 79 75 74 71 69 66 62 58 54 54 58 58 58 59 60 62 60 61 64 91 91 86 78 43 87 102 119 110 113 111 114
32 24 21 19 25 36 47 55 62 65 70 74 75 70 67 63 57 55 56 57 56 51 52 57 58 58 60 61 61 62 67 77 82 98 73 32 36 79 108 119 116 115 118
28 23 18 22 31 42 51 57 61 65 69 70 68 65 63 61 58 63 60 62 60 54 49 49 54 61 65 70 70 60 68 68 79 71 100 95 58 25 35 115 127 120 117
24 19 20 27 38 47 54 56 60 64 67 66 63 62 61 58 58 57 57 54 55 55 54 54 54 58 65 68 63 67 63 73 77 76 70 79 100 113 77 54 118 125 127
27 23 25 33 42 47 49 55 61 63 66 65 60 56 58 57 55 55 58 61 59 60 60 60 58 57 57 63 68 68 68 76 80 85 77 80 71 85 91 79 81 128 131
28 25 26 33 39 42 47 53 58 62 63 61 58 57 57 55 57 59 63 65 68 68 70 67 67 64 61 58 58 68 71 81 73 87 85 84 84 70 81 78 62 82 106
32 24 26 32 35 40 46 52 56 59 58 57 56 56 55 55 60 63 62 67 70 73 73 72 71 69 69 66 60 64 74 73 93 86 79 92 93 86 93 60 76 50 81
30 25 28 33 34 40 46 50 53 56 55 57 58 58 56 56 60 60 61 63 66 68 69 68 72 73 74 74 69 68 73 75 79 101 98 72 74 76 96 108 74 71 62
40 32 31 33 35 39 44 46 50 54 57 59 60 60 60 57 56 58 60 60 63 64 68 70 70 72 75 75 72 68 71 75 63 70 99 104 76 76 78 83 92 92 71
42 40 36 36 34 36 39 43 48 52 55 58 60 62 61 57 56 55 55 56 59 61 64 69 70 70 65 75 72 68 70 71 88 76 63 72 85 75 78 82 91 89 85
34 39 42 33 31 31 33 38 44 49 52 54 58 60 60 58 57 55 53 53 58 62 62 65 69 65 60 73 66 64 63 62 73 66 81 82 73 64 64 74 74 89 88
31 37 34 28 26 25 28 33 40 45 47 50 54 58 60 59 57 55 53 52 55 59 60 61 65 64 56 61 62 59 60 65 59 70 65 74 67 83 82 70 68 83 91
31 29 26 25 23 20 24 29 35 40 42 45 49 54 60 62 58 55 52 50 51 55 56 57 57 55 51 49 52 58 58 58 59 59 60 62 77 74 69 72 69 86 86
23 24 24 23 19 17 20 25 30 35 38 41 45 50 56 60 58 53 49 46 48 47 47 49 47 42 42 45 43 49 56 60 62 57 53 62 74 72 61 64 78 74 78
19 23 24 21 17 14 16 19 23 27 33 37 43 47 51 56 59 53 49 47 43 42 41 39 39 35 30 29 40 37 46 53 64 63 64 74 79 75 56 54 72 86 72
21 24 23 21 18 14 14 15 19 23 28 32 38 44 50 55 58 54 48 43 42 42 41 40 36 29 20 10 15 33 36 35 41 46 51 51 55 54 54 58 76 84 90
20 24 25 23 20 12 12 12 15 19 22 27 33 40 47 52 55 56 54 51 47 45 42 42 42 36 34 25 6 17 27 29 27 28 31 32 48 52 50 56 61 61 56
13 20 22 25 20 14 11 9 12 13 15 19 26 35 41 45 49 53 54 56 56 52 47 45 45 42 34 23 12 7 14 17 18 18 18 21 32 35 38 44 48 47 44
17 19 23 27 24 17 13 11 10 8 8 12 19 26 31 36 41 46 50 52 54 58 55 54 54 46 37 27 19 21 36 45 45 42 37 28 28 25 28 36 46 50 41
25 25 27 29 27 22 17 15 11 8 5 7 12 17 23 28 32 36 38 44 50 53 57 60 60 62 58 48 43 44 49 53 57 57 51 42 33 29 25 24 28 30 38
32 34 35 34 32 29 25 21 17 13 8 4 5 10 15 20 24 28 30 34 39 43 48 54 58 59 58 57 55 55 57 58 62 65 60 54 51 50 47 45 44 43 41
37 39 42 39 40 37 33 28 22 20 14 8 4 2 6 10 14 18 24 28 33 37 41 43 46 49 49 48 47 47 49 51 55 55 52 49 50 51 51 49 47 42 41
38 39 46 49 48 44 40 33 29 26 22 16 11 8 5 4 7 11 16 20 27 31 34 37 39 41 42 43 43 42 42 43 46 46 46 45 44 46 50 50 45 42 44
41 40 49 51 51 49 47 43 36 33 30 26 21 17 14 11 8 7 10 15 19 23 26 30 29 31 33 36 34 32 33 34 37 38 38 38 38 39 41 43 42 40 38
40 44 47 52 52 54 54 51 47 41 36 33 29 24 21 17 13 9 6 7 10 15 19 23 24 26 28 28 26 24 24 26 27 20 25 28 28 29 30 31 32 33 32
Wind_Direction_850mb
184 186 199 226 257 278 291 303 309 310 310 312 311 306 304 303 301 295 289 285 283 280 275 269 265 261 258 257 258 258 254 251 246 246 267 223 225 235 234 231 232 230 233
189 199 217 250 279 296 305 306 309 313 315 313 310 307 305 303 298 296 295 291 283 280 278 273 267 262 259 255 250 246 249 248 246 243 244 259 220 221 234 235 231 234 232
191 203 226 262 291 302 307 313 313 315 314 312 311 310 307 304 300 297 293 292 291 287 277 272 269 264 258 258 254 247 245 249 247 244 233 235 229 218 213 229 233 232 232
197 212 243 280 299 308 312 311 314 317 317 317 316 312 308 303 300 298 296 298 298 296 288 277 271 268 264 260 257 255 247 243 245 243 246 233 236 213 225 215 225 229 229
204 230 267 291 303 307 309 314 316 320 322 321 317 312 307 303 301 298 296 295 295 295 293 287 280 271 266 263 259 252 248 245 241 238 237 244 237 232 244 238 213 218 227
219 245 275 294 303 307 313 318 322 326 326 322 319 316 311 306 301 299 296 297 293 292 290 288 284 276 268 263 259 252 249 248 243 240 238 235 233 233 232 241 220 215 221
224 251 280 297 306 312 315 321 326 329 327 325 323 320 316 309 303 302 301 299 297 295 295 292 288 280 275 268 263 253 249 241 242 240 239 238 234 231 232 234 220 212 214
225 257 286 303 310 314 319 323 328 330 331 330 327 322 317 311 308 306 302 299 297 297 295 290 287 282 278 272 260 261 250 248 238 236 233 239 237 230 222 224 229 216 212
225 260 299 312 314 315 319 326 330 331 334 334 331 328 323 317 311 308 304 302 300 295 294 289 288 283 278 274 262 257 260 248 246 239 237 233 229 231 233 239 234 228 214
232 254 301 310 307 313 320 328 331 334 336 337 335 331 329 323 316 312 308 305 303 300 297 294 289 278 270 267 265 260 260 240 237 243 239 237 243 238 238 235 236 240 233
238 251 292 302 301 309 319 330 334 337 340 339 338 336 333 327 320 317 315 312 309 306 302 301 297 286 271 261 262 256 256 250 243 234 228 235 241 242 243 245 238 235 243
249 257 282 284 292 306 322 332 337 341 343 342 342 342 340 334 328 323 322 319 317 313 313 308 300 289 273 256 255 254 250 245 241 238 242 235 228 232 239 239 233 233 231
259 269 272 272 289 305 324 336 341 346 346 346 347 347 347 343 337 334 329 326 324 317 315 311 304 294 281 261 253 248 246 244 244 237 232 232 233 236 237 236 232 227 233
265 262 255 265 281 305 327 340 346 351 352 351 349 350 355 351 345 342 337 334 331 325 322 317 309 295 282 269 256 245 242 243 238 232 239 236 230 233 230 239 230 231 231
261 249 247 257 276 307 327 341 348 358 358 357 355 357 1 357 353 351 346 345 341 334 333 326 320 313 285 265 258 247 246 244 245 243 238 232 232 229 236 237 233 228 229
276 247 242 250 270 295 316 337 349 1 6 4 4 5 9 5 4 1 359 357 350 347 349 344 335 318 311 279 248 244 246 246 242 242 240 233 237 235 240 236 230 237 225
267 245 238 245 258 279 308 330 346 2 10 12 15 16 19 18 13 11 12 7 9 5 5 5 1 356 9 334 237 228 243 245 242 244 243 242 234 235 243 242 235 235 231
251 236 231 239 247 268 291 321 339 357 7 13 20 25 24 26 22 21 25 27 25 22 20 26 27 23 24 34 65 214 226 238 235 234 232 216 229 238 238 234 227 223 217
251 234 230 238 246 258 276 302 322 347 1 17 25 30 28 25 27 30 32 38 38 39 40 38 40 39 35 30 60 124 154 152 149 175 205 216 211 212 217 218 200 177 176
245 236 235 236 242 250 264 279 297 320 343 15 24 28 30 28 31 34 36 43 48 50 52 56 58 55 55 51 73 106 118 115 113 117 121 133 139 148 162 172 166 160 151
248 238 237 239 239 240 249 258 263 267 298 353 18 28 34 32 29 33 37 43 50 55 56 57 62 69 69 74 81 92 96 98 98 96 96 98 105 113 125 146 157 159 144
254 244 241 239 236 237 241 245 244 235 245 291 13 26 32 32 30 29 38 43 49 51 57 63 64 62 67 75 78 84 89 95 96 94 94 96 98 100 104 110 111 116 123
259 248 247 240 234 235 237 238 236 228 232 235 230 336 13 26 31 31 37 42 48 51 54 56 61 64 65 65 69 79 85 90 95 100 103 108 111 108 106 106 110 116 122
270 255 246 241 237 236 235 234 234 230 229 232 230 228 249 307 351 21 36 46 54 54 54 56 59 63 64 65 68 72 75 82 88 94 99 102 107 110 111 112 113 121 131
275 261 249 246 244 238 234 232 231 233 230 229 229 228 231 249 277 327 5 23 34 39 49 58 58 59 63 66 66 71 76 79 85 93 97 103 107 110 115 120 124 125 128
283 268 256 250 243 238 234 232 230 230 230 231 233 232 232 236 247 266 308 351 19 26 28 33 37 50 58 56 57 63 71 83 88 92 99 108 113 120 126 130 134 138 142